EW3950 Pantokratora GR current weather conditions

sailwx.info

Wind from 178 at 0 knots gusting 3

Air temperature 7.2° C
Dewpoint 6.3° C

Last reported at 2019-Dec-13 01:49 UTC.
Time now 2019-Dec-13 02:44 UTC

Location: N 39°45' E 019°50'.
View on Google Maps.

See reports from other nearby stations

  
Tides and Currents Weather Stations Pressure Air Temp Water Temp Dewpoint Dewpoint Depression Visibility Wind Speed Wind Dir Waves Ship Positions
date/time (UTC)wind fromknots sea level pressurealtimeterstation pressurevisibilityair tempwater tempwave heightnotes
2019-Dec-13 01:49 178 0 gusting 3 7.2
2019-Dec-13 01:40 160 0 gusting 5 7.2
2019-Dec-13 01:31 162 1 gusting 6 7.2
2019-Dec-13 01:22 182 1 gusting 5 6.7
2019-Dec-13 01:13 238 0 gusting 5 6.7
2019-Dec-13 01:04 133 0 gusting 5 6.7
2019-Dec-13 00:55 143 0 gusting 5 6.7
2019-Dec-13 00:46 168 1 gusting 7 6.7
2019-Dec-13 00:37 135 1 gusting 5 6.7
2019-Dec-13 00:28 227 1 gusting 6 6.7
2019-Dec-13 00:19 124 1 gusting 9 6.7
2019-Dec-13 00:10 136 1 gusting 8 6.7
2019-Dec-13 00:01 162 1 gusting 5 6.7
2019-Dec-12 23:52 149 1 gusting 6 6.7
2019-Dec-12 23:43 174 2 gusting 7 6.7
2019-Dec-12 23:34 207 1 gusting 5 6.7
2019-Dec-12 23:25 141 2 gusting 9 7.2
2019-Dec-12 23:16 162 1 gusting 4 7.2
2019-Dec-12 23:07 159 0 gusting 4 7.2
2019-Dec-12 22:58 128 1 gusting 4 7.2
2019-Dec-12 22:49 120 2 gusting 7 7.2
2019-Dec-12 22:40 110 2 gusting 6 7.2
2019-Dec-12 22:31 134 2 gusting 8 7.2
2019-Dec-12 22:22 103 1 gusting 5 7.2
2019-Dec-12 22:13 183 2 gusting 13 7.8
2019-Dec-12 22:04 109 0 gusting 5 7.2
2019-Dec-12 21:55 263 0 gusting 3 7.8
2019-Dec-12 21:46 105 1 gusting 6 7.8
2019-Dec-12 21:37 072 0 gusting 4 7.8
2019-Dec-12 21:28 199 0 gusting 4 7.8
2019-Dec-12 21:19 160 0 gusting 6 7.8
2019-Dec-12 21:10 083 0 gusting 6 7.2
2019-Dec-12 21:01 094 0 gusting 3 7.2
2019-Dec-12 20:52 057 0 gusting 4 7.2
2019-Dec-12 20:43 354 7.2
2019-Dec-12 20:34 292 7.2
2019-Dec-12 20:25 316 0 gusting 4 7.2
2019-Dec-12 20:16 281 0 gusting 4 7.2
2019-Dec-12 20:07 254 0 gusting 2 7.2
2019-Dec-12 19:58 158 6.7
2019-Dec-12 19:49 123 6.7
2019-Dec-12 19:40 197 7.2
2019-Dec-12 19:31 138 7.2
2019-Dec-12 19:22 355 0 gusting 4 7.2
2019-Dec-12 19:13 302 0 gusting 2 6.7
2019-Dec-12 19:04 333 0 gusting 2 6.7
2019-Dec-12 18:55 310 0 gusting 2 6.7
2019-Dec-12 18:46 289 0 gusting 2 6.7
2019-Dec-12 18:37 283 0 gusting 3 6.7
2019-Dec-12 18:28 270 0 gusting 2 6.7
2019-Dec-12 18:19 129 6.7
2019-Dec-12 18:10 158 6.7
2019-Dec-12 18:01 135 6.7
2019-Dec-12 17:52 150 0 gusting 4 6.7
2019-Dec-12 17:43 201 0 gusting 5 7.2
2019-Dec-12 17:34 270 1 gusting 5 7.2
2019-Dec-12 17:25 268 1 gusting 6 7.2
2019-Dec-12 17:16 317 0 gusting 4 7.2
2019-Dec-12 17:07 264 0 gusting 3 6.7
2019-Dec-12 16:58 108 0 gusting 3 6.7
2019-Dec-12 16:49 130 0 gusting 2 6.7
2019-Dec-12 16:40 108 6.7
2019-Dec-12 16:31 306 0 gusting 2 6.7
2019-Dec-12 16:22 097 1 gusting 6 7.2
2019-Dec-12 16:13 085 1 gusting 6 6.7
2019-Dec-12 16:04 337 0 gusting 3 7.2
2019-Dec-12 15:55 353 0 gusting 2 7.2
2019-Dec-12 15:46 007 0 gusting 1 7.2
2019-Dec-12 15:37 325 0 gusting 3 7.2
2019-Dec-12 15:28 332 0 gusting 2 7.2
2019-Dec-12 15:19 150 1 gusting 6 7.2
2019-Dec-12 15:10 147 1 gusting 11 7.2
2019-Dec-12 15:01 023 1 gusting 5 7.2
2019-Dec-12 14:52 258 1 gusting 6 7.8
2019-Dec-12 14:43 148 0 gusting 4 7.8
2019-Dec-12 14:34 218 1 gusting 6 7.8
2019-Dec-12 14:25 240 2 gusting 7 7.8
2019-Dec-12 14:16 207 2 gusting 10 8.3
2019-Dec-12 14:07 074 1 gusting 5 8.3
2019-Dec-12 13:58 175 1 gusting 5 8.9
2019-Dec-12 13:49 095 0 gusting 6 8.9
2019-Dec-12 13:40 166 1 gusting 5 9.4
2019-Dec-12 13:31 183 0 gusting 2 9.4
2019-Dec-12 13:22 172 1 gusting 5 9.4
2019-Dec-12 13:13 204 0 gusting 4 10.0
2019-Dec-12 13:04 158 0 gusting 5 10.0
2019-Dec-12 12:55 220 2 gusting 7 10.6
2019-Dec-12 12:46 188 2 gusting 6 10.0
2019-Dec-12 12:37 196 1 gusting 7 10.6
2019-Dec-12 12:28 166 1 gusting 7 10.6
2019-Dec-12 12:19 201 1 gusting 4 10.6
2019-Dec-12 12:10 179 0 gusting 4 10.6
2019-Dec-12 12:01 221 0 gusting 3 10.6
2019-Dec-12 11:52 159 0 gusting 5 10.6
2019-Dec-12 11:43 179 0 gusting 5 10.6
2019-Dec-12 11:34 190 0 gusting 3 10.6
2019-Dec-12 11:25 154 0 gusting 4 10.6
2019-Dec-12 11:16 139 0 gusting 3 11.1
2019-Dec-12 11:07 287 1 gusting 4 11.1
2019-Dec-12 10:58 251 0 gusting 4 11.1
2019-Dec-12 10:49 244 0 gusting 2 10.6
2019-Dec-12 10:40 331 0 gusting 4 10.6
2019-Dec-12 10:31 322 0 gusting 3 10.6
2019-Dec-12 10:22 306 0 gusting 3 10.6
2019-Dec-12 10:13 279 0 gusting 3 10.6
2019-Dec-12 10:04 196 0 gusting 3 11.1
2019-Dec-12 09:55 307 0 gusting 4 10.6
2019-Dec-12 09:46 290 0 gusting 3 10.6
2019-Dec-12 09:37 241 0 gusting 1 10.6
2019-Dec-12 09:28 276 10.6
2019-Dec-12 09:19 197 10.6
2019-Dec-12 09:10 244 0 gusting 2 10.0
2019-Dec-12 09:01 275 9.4
2019-Dec-12 08:52 026 9.4
2019-Dec-12 08:43 126 8.9
2019-Dec-12 05:07 4.4
2019-Dec-12 04:58 3.9
2019-Dec-12 04:49 128 3.9
2019-Dec-12 04:40 3.9
2019-Dec-12 04:31 3.9
2019-Dec-12 04:22 3.9
2019-Dec-12 04:13 3.9
2019-Dec-12 04:04 3.9
2019-Dec-12 03:55 3.9
2019-Dec-12 03:46 128 3.9
2019-Dec-12 03:37 3.9
2019-Dec-12 03:28 128 3.9
2019-Dec-12 03:19 128 3.9
2019-Dec-12 03:10 3.9
2019-Dec-12 03:01 3.9
2019-Dec-12 02:52 3.9
2019-Dec-12 02:43 128 3.9
2019-Dec-12 02:34 123 3.3
2019-Dec-12 02:25 3.3
2019-Dec-12 02:16 3.3
2019-Dec-12 02:07 125 3.9
2019-Dec-12 01:58 3.9
2019-Dec-12 01:49 3.9
2019-Dec-12 01:40 3.3
2019-Dec-12 01:31 124 3.3
2019-Dec-12 01:22 3.3
2019-Dec-12 01:13 3.3
2019-Dec-12 01:04 3.3
2019-Dec-12 00:55 3.3
2019-Dec-12 00:46 3.9
2019-Dec-12 00:37 3.9
2019-Dec-12 00:28 123 3.9
2019-Dec-12 00:19 123 3.9
2019-Dec-12 00:10 123 3.9
2019-Dec-12 00:01 123 3.9
2019-Dec-11 23:52 124 3.9
2019-Dec-11 23:43 123 3.9
2019-Dec-11 23:34 123 3.9
2019-Dec-11 23:25 3.3
2019-Dec-11 23:16 3.3
2019-Dec-11 23:07 3.9
2019-Dec-11 22:58 4.4
2019-Dec-11 22:49 4.4
2019-Dec-11 22:40 125 4.4
2019-Dec-11 22:31 124 5.0
2019-Dec-11 22:22 125 5.0
2019-Dec-11 22:13 121 5.0
2019-Dec-11 22:04 118 5.0
2019-Dec-11 21:55 5.0
2019-Dec-11 21:46 5.0
2019-Dec-11 21:37 5.0
2019-Dec-11 21:28 5.6
2019-Dec-11 21:19 5.6
2019-Dec-11 21:10 124 5.6
2019-Dec-11 21:01 129 6.1
2019-Dec-11 20:52 109 0 gusting 2 6.7
2019-Dec-11 20:43 097 2 gusting 4 7.8
2019-Dec-11 20:34 099 3 gusting 6 7.8
2019-Dec-11 20:25 098 4 gusting 6 7.8
2019-Dec-11 20:16 101 4 gusting 6 7.8
2019-Dec-11 20:07 099 4 gusting 6 7.2
2019-Dec-11 19:58 099 4 gusting 6 7.2
2019-Dec-11 19:49 099 5 gusting 6 7.8
2019-Dec-11 19:40 098 4 gusting 6 7.8
2019-Dec-11 19:31 113 1 gusting 5 7.8
2019-Dec-11 19:22 116 1 gusting 6 7.8
2019-Dec-11 19:13 111 1 gusting 3 7.8
2019-Dec-11 19:04 093 0 gusting 2 7.2
2019-Dec-11 18:55 106 1 gusting 2 7.2
2019-Dec-11 18:46 083 0 gusting 3 7.2
2019-Dec-11 18:37 084 1 gusting 3 7.2
2019-Dec-11 18:28 097 1 gusting 2 6.7
2019-Dec-11 18:19 114 0 gusting 2 7.2
2019-Dec-11 18:10 109 1 gusting 4 7.2
2019-Dec-11 18:01 108 0 gusting 2 7.2
2019-Dec-11 17:52 095 0 gusting 3 7.2
2019-Dec-11 17:43 106 1 gusting 3 7.2
2019-Dec-11 17:34 110 1 gusting 3 6.7
2019-Dec-11 17:25 111 0 gusting 2 6.1
2019-Dec-11 17:16 109 0 gusting 1 6.1
2019-Dec-11 17:07 119 6.1
2019-Dec-11 16:58 128 6.7
2019-Dec-11 16:49 108 6.7
2019-Dec-11 16:40 109 6.7
2019-Dec-11 16:31 133 6.7
2019-Dec-11 16:22 119 6.7
2019-Dec-11 16:13 124 6.7
2019-Dec-11 16:04 121 6.7
2019-Dec-11 15:55 118 6.7
2019-Dec-11 15:46 119 6.7
2019-Dec-11 15:37 6.1
2019-Dec-11 15:28 6.7
2019-Dec-11 15:19 123 6.7
2019-Dec-11 15:10 123 7.2
2019-Dec-11 15:01 123 7.8
2019-Dec-11 14:52 8.3
2019-Dec-11 14:43 278 8.9
2019-Dec-11 14:34 259 0 gusting 3 8.9
2019-Dec-11 14:25 204 0 gusting 2 8.9
2019-Dec-11 14:16 275 0 gusting 2 8.9
2019-Dec-11 14:07 224 8.9
2019-Dec-11 13:58 177 9.4
2019-Dec-11 13:49 090 9.4
2019-Dec-11 13:40 191 9.4
2019-Dec-11 13:31 354 0 gusting 4 10.0
2019-Dec-11 13:22 016 0 gusting 4 10.0
2019-Dec-11 13:13 190 1 gusting 6 10.0
2019-Dec-11 13:04 162 1 gusting 6 10.6
2019-Dec-11 12:55 209 1 gusting 4 10.6
2019-Dec-11 12:46 221 1 gusting 4 10.6
2019-Dec-11 12:37 282 1 gusting 4 10.6
2019-Dec-11 12:28 246 1 gusting 5 10.6
2019-Dec-11 12:19 265 0 gusting 4 10.6
2019-Dec-11 12:10 267 0 gusting 3 10.6
2019-Dec-11 12:01 295 1 gusting 3 10.6
2019-Dec-11 11:52 265 1 gusting 4 10.6
2019-Dec-11 11:43 260 0 gusting 3 10.6
2019-Dec-11 11:34 256 1 gusting 5 10.6
2019-Dec-11 11:25 185 2 gusting 5 10.0
2019-Dec-11 11:16 165 3 gusting 7 10.0
2019-Dec-11 11:07 155 3 gusting 7 10.0
2019-Dec-11 10:58 175 2 gusting 6 10.0
2019-Dec-11 10:49 182 2 gusting 6 10.0
2019-Dec-11 10:40 170 3 gusting 6 9.4
2019-Dec-11 10:22 161 3 gusting 6 9.4
2019-Dec-11 10:04 148 2 gusting 7 9.4
2019-Dec-11 09:55 135 2 gusting 6 9.4
2019-Dec-11 09:46 154 3 gusting 9 9.4
2019-Dec-11 09:37 147 2 gusting 10 9.4
2019-Dec-11 09:28 143 2 gusting 10 9.4
2019-Dec-11 09:19 153 2 gusting 8 10.0
2019-Dec-11 09:10 157 5 gusting 11 10.0
2019-Dec-11 09:01 147 2 gusting 9 10.0
2019-Dec-11 08:52 163 4 gusting 10 9.4
2019-Dec-11 08:43 157 3 gusting 7 9.4
2019-Dec-11 08:34 151 2 gusting 7 8.9
2019-Dec-11 08:25 186 1 gusting 6 8.9
2019-Dec-11 08:16 148 2 gusting 10 8.3
2019-Dec-11 08:07 159 4 gusting 10 8.3
2019-Dec-11 07:58 163 5 gusting 10 8.3
2019-Dec-11 07:49 160 5 gusting 11 8.3
2019-Dec-11 07:40 161 5 gusting 11 7.8
2019-Dec-11 07:31 170 5 gusting 10 7.8
2019-Dec-11 07:22 179 2 gusting 7 7.2
2019-Dec-11 07:13 230 1 gusting 3 7.2
2019-Dec-11 07:04 199 1 gusting 5 7.2
2019-Dec-11 06:55 181 2 gusting 6 7.2
2019-Dec-11 06:46 174 4 gusting 8 7.8
2019-Dec-11 06:37 170 5 gusting 10 7.8
2019-Dec-11 06:28 175 4 gusting 9 7.2
2019-Dec-11 05:15 194 3 gusting 6 6.7
2019-Dec-11 05:06 193 3 gusting 7 6.7
2019-Dec-11 04:57 201 4 gusting 9 6.7
2019-Dec-11 04:48 221 2 gusting 6 6.7
2019-Dec-11 04:39 199 4 gusting 9 6.7
2019-Dec-11 04:30 206 4 gusting 11 7.2
2019-Dec-11 04:21 218 3 gusting 8 6.7
2019-Dec-11 04:13 223 4 gusting 11 6.7
2019-Dec-11 04:03 237 3 gusting 8 6.7
2019-Dec-11 03:54 220 3 gusting 9 6.7
2019-Dec-11 03:45 202 3 gusting 10 6.7
2019-Dec-11 03:36 230 3 gusting 9 6.7
2019-Dec-11 03:27 207 3 gusting 7 7.2
2019-Dec-11 03:18 206 4 gusting 9 7.2
2019-Dec-11 03:09 226 2 gusting 9 7.2
2019-Dec-11 03:00 229 2 gusting 6 6.7
2019-Dec-11 02:51 256 2 gusting 7 6.7
2019-Dec-11 02:42 277 2 gusting 6 6.7
2019-Dec-11 02:33 277 1 gusting 6 6.7
2019-Dec-11 02:24 279 1 gusting 4 6.7
2019-Dec-11 02:15 278 1 gusting 5 6.7
2019-Dec-11 02:06 281 2 gusting 6 6.7